Volver al catálogo

BREEZE-M DEB

LostHEO
NORAD 38571·DEBRIS·🇷🇺 Russia

Lanzado Mar 14, 2008 desde Baikonur Cosmodrome

Loading…

Próximos Pases (próximas 24 horas)

TLE

ObsoletoSource: Space-Track

Época: Jul 10, 2025, 17:02 UTC

1 38571U 08011S   25191.70999019 -.00000062  00000-0  00000-0 0  9995
2 38571  49.6300   0.2981 6204600 241.4273 346.8767  2.98512788144391

Sigue BREEZE-M DEB en tiempo real con AllMySat

Download on the App Store